Location: Newark
(21.1200°N, 73.4000°E)
Time: 23:59:34
(UTC+00:00)

Vanguard 1 Rocket - Pass Details

Date: 26 January 2021
Orbit: 654 x 4223 km, 34.3° (Epoch: 06 March)

Event Time Altitude Azimuth Distance (km) Brightness Sun altitude
Rises 15:10:54 0° 259° (W) 4,302 12.0 -32.0°
Reaches altitude 10° 15:15:21 10° 235° (SW) 3,898 11.3 -33.0°
Maximum altitude 15:20:29 15° 205° (SSW) 4,182 11.0 -34.2°
Drops below altitude 10° 15:27:15 10° 177° (S) 5,350 11.3 -35.7°
Sets 15:36:03 0° 158° (SSE) 7,247 11.9 -37.8°
